| time (UTC) | temp F | wind direction | speed knots | gust knots | rain 1hr in | rain 24hr in | rain mn in | humidity % | barometer mb |
| 20260503225503 | 69 | 227 | 4.3 | 8.7 | 0.00 | 0.00 | 0.00 | 40 | 1003.4 |
| 20260503225003 | 69 | 222 | 4.3 | 9.6 | 0.00 | 0.00 | 0.00 | 40 | 1003.6 |
| 20260503224512 | 69 | 219 | 4.3 | 9.6 | 0.00 | 0.00 | 0.00 | 40 | 1003.6 |
| 20260503224003 | 70 | 223 | 3.5 | 9.6 | 0.00 | 0.00 | 0.00 | 39 | 1003.6 |
| 20260503223510 | 69 | 234 | 3.5 | 8.7 | 0.00 | 0.00 | 0.00 | 40 | 1003.6 |
| 20260503223003 | 69 | 233 | 5.2 | 15.6 | 0.00 | 0.00 | 0.00 | 40 | 1003.6 |
| 20260503222503 | 69 | 242 | 4.3 | 15.6 | 0.00 | 0.00 | 0.00 | 40 | 1003.7 |
| 20260503222004 | 69 | 225 | 4.3 | 9.6 | 0.00 | 0.00 | 0.00 | 42 | 1003.8 |
| 20260503221503 | 68 | 194 | 4.3 | 9.6 | 0.00 | 0.00 | 0.00 | 42 | 1003.7 |
| 20260503221003 | 68 | 195 | 4.3 | 8.7 | 0.00 | 0.00 | 0.00 | 43 | 1003.7 |
| 20260503220524 | 68 | 207 | 4.3 | 8.7 | 0.00 | 0.00 | 0.00 | 41 | 1003.7 |
| 20260503220006 | 69 | 216 | 4.3 | 8.7 | 0.00 | 0.00 | 0.00 | 42 | 1003.7 |
| 20260503215503 | 69 | 217 | 4.3 | 9.6 | 0.00 | 0.00 | 0.00 | 43 | 1003.7 |
| 20260503215003 | 68 | 213 | 4.3 | 11.3 | 0.00 | 0.00 | 0.00 | 45 | 1003.8 |
| 20260503214503 | 68 | 205 | 5.2 | 11.3 | 0.00 | 0.00 | 0.00 | 43 | 1003.7 |
| 20260503214003 | 68 | 207 | 5.2 | 10.4 | 0.00 | 0.00 | 0.00 | 42 | 1003.8 |
| 20260503213507 | 68 | 200 | 5.2 | 11.3 | 0.00 | 0.00 | 0.00 | 43 | 1003.7 |
| 20260503213003 | 68 | 200 | 5.2 | 11.3 | 0.00 | 0.00 | 0.00 | 42 | 1003.8 |
| 20260503212503 | 68 | 202 | 5.2 | 10.4 | 0.00 | 0.00 | 0.00 | 43 | 1003.8 |
| 20260503212003 | 68 | 208 | 4.3 | 10.4 | 0.00 | 0.00 | 0.00 | 43 | 1003.8 |
| 20260503211503 | 68 | 209 | 4.3 | 11.3 | 0.00 | 0.00 | 0.00 | 42 | 1003.9 |
| 20260503211003 | 67 | 193 | 6.1 | 11.3 | 0.00 | 0.00 | 0.00 | 43 | 1003.9 |
| 20260503210504 | 67 | 194 | 5.2 | 11.3 | 0.00 | 0.00 | 0.00 | 43 | 1003.9 |
| 20260503210003 | 67 | 195 | 6.1 | 15.6 | 0.00 | 0.00 | 0.00 | 44 | 1004.1 |
| 20260503205003 | 66 | 192 | 7.0 | 12.2 | 0.00 | 0.00 | 0.00 | 43 | 1004.3 |
| 20260503204524 | 67 | 197 | 6.1 | 12.2 | 0.00 | 0.00 | 0.00 | 43 | 1004.2 |
| 20260503204024 | 67 | 206 | 5.2 | 13.9 | 0.00 | 0.00 | 0.00 | 44 | 1004.2 |
| 20260503203503 | 67 | 212 | 5.2 | 13.9 | 0.00 | 0.00 | 0.00 | 43 | 1004.3 |
| 20260503203003 | 67 | 220 | 5.2 | 10.4 | 0.00 | 0.00 | 0.00 | 44 | 1004.5 |
| 20260503202503 | 67 | 220 | 4.3 | 12.2 | 0.00 | 0.00 | 0.00 | 43 | 1004.6 |
| 20260503202003 | 67 | 201 | 5.2 | 12.2 | 0.00 | 0.00 | 0.00 | 43 | 1004.7 |
| 20260503201003 | 66 | 198 | 6.1 | 13.9 | 0.00 | 0.00 | 0.00 | 43 | 1004.8 |
| 20260503200503 | 66 | 190 | 7.0 | 13.9 | 0.00 | 0.00 | 0.00 | 44 | 1004.9 |
| 20260503200004 | 66 | 189 | 7.0 | 13.9 | 0.00 | 0.00 | 0.00 | 44 | 1004.9 |
| 20260503195503 | 66 | 196 | 6.1 | 12.2 | 0.00 | 0.00 | 0.00 | 44 | 1004.9 |
| 20260503195003 | 66 | 196 | 6.1 | 12.2 | 0.00 | 0.00 | 0.00 | 43 | 1005.0 |
| 20260503194503 | 66 | 194 | 7.0 | 13.0 | 0.00 | 0.00 | 0.00 | 44 | 1005.1 |
| 20260503194004 | 66 | 195 | 7.0 | 13.0 | 0.00 | 0.00 | 0.00 | 43 | 1005.2 |
| 20260503193503 | 65 | 195 | 6.1 | 13.0 | 0.00 | 0.00 | 0.00 | 47 | 1005.3 |
| 20260503193003 | 65 | 196 | 6.1 | 13.9 | 0.00 | 0.00 | 0.00 | 48 | 1005.4 |
| 20260503192524 | 65 | 197 | 7.0 | 13.9 | 0.00 | 0.00 | 0.00 | 47 | 1005.4 |
| 20260503192003 | 64 | 195 | 7.0 | 13.9 | 0.00 | 0.00 | 0.00 | 47 | 1005.5 |
| 20260503191503 | 64 | 192 | 7.0 | 13.0 | 0.00 | 0.00 | 0.00 | 49 | 1005.6 |
| 20260503191003 | 64 | 190 | 6.1 | 13.0 | 0.00 | 0.00 | 0.00 | 47 | 1005.6 |
| 20260503190504 | 64 | 202 | 6.1 | 11.3 | 0.00 | 0.00 | 0.00 | 46 | 1005.7 |
| 20260503190003 | 64 | 214 | 6.1 | 13.9 | 0.00 | 0.00 | 0.00 | 47 | 1005.7 |
| 20260503185525 | 64 | 212 | 7.0 | 13.9 | 0.00 | 0.00 | 0.00 | 46 | 1005.8 |
| 20260503185024 | 64 | 204 | 7.0 | 13.0 | 0.00 | 0.00 | 0.00 | 47 | 1005.9 |
| 20260503184504 | 63 | 195 | 7.0 | 15.6 | 0.00 | 0.00 | 0.00 | 48 | 1005.9 |
| 20260503184003 | 63 | 194 | 7.8 | 15.6 | 0.00 | 0.00 | 0.00 | 46 | 1005.8 |
| 20260503183524 | 63 | 196 | 7.0 | 16.5 | 0.00 | 0.00 | 0.00 | 48 | 1006.0 |
| 20260503183024 | 63 | 196 | 7.0 | 16.5 | 0.00 | 0.00 | 0.00 | 46 | 1006.1 |
| 20260503182503 | 63 | 194 | 7.8 | 15.6 | 0.00 | 0.00 | 0.00 | 46 | 1006.0 |
| 20260503182003 | 63 | 197 | 8.7 | 15.6 | 0.00 | 0.00 | 0.00 | 45 | 1006.1 |
| 20260503181504 | 63 | 200 | 7.8 | 15.6 | 0.00 | 0.00 | 0.00 | 46 | 1006.0 |
| 20260503181004 | 63 | 194 | 7.8 | 15.6 | 0.00 | 0.00 | 0.00 | 47 | 1006.2 |
| 20260503180503 | 62 | 195 | 7.8 | 16.5 | 0.00 | 0.00 | 0.00 | 49 | 1006.2 |
| 20260503180024 | 62 | 193 | 8.7 | 17.4 | 0.00 | 0.00 | 0.00 | 49 | 1006.3 |
| 20260503175504 | 62 | 188 | 8.7 | 17.4 | 0.00 | 0.00 | 0.00 | 49 | 1006.3 |
| 20260503175004 | 62 | 187 | 8.7 | 15.6 | 0.00 | 0.00 | 0.00 | 49 | 1006.4 |
| 20260503174503 | 62 | 185 | 8.7 | 15.6 | 0.00 | 0.00 | 0.00 | 48 | 1006.5 |
| 20260503174003 | 62 | 185 | 8.7 | 17.4 | 0.00 | 0.00 | 0.00 | 49 | 1006.7 |
| 20260503173503 | 62 | 186 | 8.7 | 19.1 | 0.00 | 0.00 | 0.00 | 50 | 1006.7 |
| 20260503173024 | 62 | 191 | 7.8 | 19.1 | 0.00 | 0.00 | 0.00 | 50 | 1006.7 |
| 20260503172504 | 62 | 193 | 7.0 | 15.6 | 0.00 | 0.00 | 0.00 | 50 | 1007.0 |
| 20260503172025 | 62 | 190 | 7.8 | 17.4 | 0.00 | 0.00 | 0.00 | 53 | 1007.0 |
| 20260503171503 | 61 | 189 | 7.8 | 17.4 | 0.00 | 0.00 | 0.00 | 53 | 1007.1 |
| 20260503171024 | 61 | 191 | 7.8 | 16.5 | 0.00 | 0.00 | 0.00 | 54 | 1007.3 |
| 20260503170503 | 60 | 192 | 7.8 | 16.5 | 0.00 | 0.00 | 0.00 | 54 | 1007.4 |
| 20260503151003 | 53 | 191 | 4.3 | 9.6 | 0.00 | 0.00 | 0.00 | 69 | 1009.2 |
| 20260503150524 | 53 | 192 | 4.3 | 9.6 | 0.00 | 0.00 | 0.00 | 69 | 1009.2 |
| 20260503131003 | 52 | 204 | 4.3 | 7.8 | 0.00 | 0.00 | 0.00 | 61 | 1009.8 |
| 20260503130503 | 52 | 202 | 4.3 | 7.8 | 0.00 | 0.00 | 0.00 | 61 | 1009.8 |
| 20260503110503 | 47 | 194 | 1.7 | 3.5 | 0.00 | 0.00 | 0.00 | 62 | 1010.1 |
| 20260503090503 | 48 | 192 | 2.6 | 6.1 | 0.00 | 0.00 | 0.00 | 57 | 1010.9 |
| 20260503081503 | 48 | 198 | 1.7 | 4.3 | 0.00 | 0.00 | 0.00 | 57 | 1011.4 |
| 20260503081003 | 48 | 193 | 1.7 | 5.2 | 0.00 | 0.00 | 0.00 | 57 | 1011.3 |
| 20260503080503 | 48 | 193 | 2.6 | 7.0 | 0.00 | 0.00 | 0.00 | 57 | 1011.3 |
| 20260503072503 | 48 | 189 | 2.6 | 5.2 | 0.00 | 0.00 | 0.00 | 56 | 1011.4 |
| 20260503072003 | 48 | 190 | 3.5 | 5.2 | 0.00 | 0.00 | 0.00 | 56 | 1011.5 |
| 20260503071524 | 48 | 189 | 2.6 | 4.3 | 0.00 | 0.00 | 0.00 | 56 | 1011.6 |
| 20260503071003 | 48 | 189 | 2.6 | 4.3 | 0.00 | 0.00 | 0.00 | 55 | 1011.6 |
| 20260503070503 | 48 | 188 | 2.6 | 6.1 | 0.00 | 0.00 | 0.00 | 56 | 1011.6 |
| 20260503055024 | 49 | 192 | 1.7 | 3.5 | 0.00 | 0.00 | 0.00 | 56 | 1012.3 |
| 20260503054503 | 49 | 191 | 1.7 | 4.3 | 0.00 | 0.00 | 0.00 | 55 | 1012.4 |
| 20260503054003 | 49 | 186 | 1.7 | 4.3 | 0.00 | 0.00 | 0.00 | 55 | 1012.4 |
| 20260503053503 | 49 | 186 | 1.7 | 4.3 | 0.00 | 0.00 | 0.00 | 55 | 1012.4 |
| 20260503053003 | 48 | 187 | 1.7 | 4.3 | 0.00 | 0.00 | 0.00 | 56 | 1012.5 |
| 20260503052503 | 48 | 186 | 0.9 | 3.5 | 0.00 | 0.00 | 0.00 | 56 | 1012.5 |
| 20260503052003 | 48 | 183 | 0.9 | 2.6 | 0.00 | 0.00 | 0.00 | 56 | 1012.6 |
| 20260503051503 | 48 | 190 | 0.9 | 3.5 | 0.00 | 0.00 | 0.00 | 56 | 1012.6 |
| 20260503051003 | 48 | 197 | 1.7 | 3.5 | 0.00 | 0.00 | 0.00 | 56 | 1012.7 |
| 20260503050503 | 48 | 197 | 1.7 | 4.3 | 0.00 | 0.00 | 0.00 | 56 | 1012.7 |
| 20260503050003 | 48 | 196 | 1.7 | 5.2 | 0.00 | 0.00 | 0.00 | 56 | 1012.6 |
| 20260503045503 | 48 | 191 | 1.7 | 5.2 | 0.00 | 0.00 | 0.00 | 57 | 1012.6 |
| 20260503045003 | 48 | 186 | 1.7 | 4.3 | 0.00 | 0.00 | 0.00 | 56 | 1012.7 |
| 20260503044503 | 48 | 188 | 1.7 | 4.3 | 0.00 | 0.00 | 0.00 | 56 | 1012.7 |
| 20260503044025 | 48 | 192 | 1.7 | 4.3 | 0.00 | 0.00 | 0.00 | 56 | 1012.7 |
| 20260503043503 | 48 | 188 | 1.7 | 4.3 | 0.00 | 0.00 | 0.00 | 56 | 1012.8 |
| 20260503043003 | 48 | 184 | 1.7 | 4.3 | 0.00 | 0.00 | 0.00 | 57 | 1012.8 |
| 20260503042524 | 48 | 184 | 1.7 | 3.5 | 0.00 | 0.00 | 0.00 | 57 | 1012.8 |
| 20260503042003 | 48 | 189 | 1.7 | 3.5 | 0.00 | 0.00 | 0.00 | 57 | 1012.9 |
| 20260503041503 | 48 | 195 | 0.9 | 3.5 | 0.00 | 0.00 | 0.00 | 57 | 1012.9 |
| 20260503041003 | 47 | 197 | 0.9 | 3.5 | 0.00 | 0.00 | 0.00 | 57 | 1012.9 |
| 20260503040524 | 47 | 197 | 0.9 | 3.5 | 0.00 | 0.00 | 0.00 | 58 | 1013.0 |
| 20260503040003 | 47 | 197 | 0.9 | 1.7 | 0.00 | 0.00 | 0.00 | 57 | 1013.1 |
| 20260503035503 | 47 | 197 | 0.9 | 1.7 | 0.00 | 0.00 | 0.00 | 58 | 1013.1 |
| 20260503035003 | 47 | 197 | 0.9 | 1.7 | 0.00 | 0.00 | 0.00 | 57 | 1013.1 |
| 20260503034503 | 47 | 197 | 0.9 | 1.7 | 0.00 | 0.00 | 0.00 | 57 | 1013.2 |
| 20260503034024 | 48 | 197 | 0.9 | 1.7 | 0.00 | 0.00 | 0.00 | 57 | 1013.3 |
| 20260503033503 | 48 | 197 | 0.9 | 1.7 | 0.00 | 0.00 | 0.00 | 57 | 1013.3 |
| 20260503033003 | 48 | 197 | 0.9 | 1.7 | 0.00 | 0.00 | 0.00 | 57 | 1013.3 |
| 20260503032503 | 48 | 197 | 0.9 | 1.7 | 0.00 | 0.00 | 0.00 | 56 | 1013.4 |
| 20260503032003 | 48 | 197 | 0.9 | 1.7 | 0.00 | 0.00 | 0.00 | 56 | 1013.4 |
| 20260503031503 | 48 | 197 | 0.9 | 1.7 | 0.00 | 0.00 | 0.00 | 56 | 1013.4 |
| 20260503031003 | 48 | 197 | 0.9 | 1.7 | 0.00 | 0.00 | 0.00 | 56 | 1013.5 |
| 20260503030524 | 48 | 197 | 0.0 | 0.9 | 0.00 | 0.00 | 0.00 | 56 | 1013.6 |
| 20260503030003 | 48 | 197 | 0.0 | 0.9 | 0.00 | 0.00 | 0.00 | 55 | 1013.6 |
| 20260503025503 | 49 | 197 | 0.0 | 0.9 | 0.00 | 0.00 | 0.00 | 54 | 1013.7 |
| 20260503025024 | 49 | 197 | 0.0 | 0.9 | 0.00 | 0.00 | 0.00 | 54 | 1013.6 |
| 20260503024524 | 49 | 197 | 0.0 | 1.7 | 0.00 | 0.00 | 0.00 | 53 | 1013.6 |
| 20260503024003 | 49 | 197 | 0.0 | 1.7 | 0.00 | 0.00 | 0.00 | 53 | 1013.6 |
| 20260503023503 | 49 | 197 | 0.0 | 0.9 | 0.00 | 0.00 | 0.00 | 52 | 1013.6 |
| 20260503023003 | 50 | 197 | 0.0 | 0.9 | 0.00 | 0.00 | 0.00 | 52 | 1013.6 |
| 20260503022503 | 50 | 197 | 0.0 | 0.9 | 0.00 | 0.00 | 0.00 | 52 | 1013.6 |
| 20260503022003 | 50 | 197 | 0.0 | 1.7 | 0.00 | 0.00 | 0.00 | 51 | 1013.6 |
| 20260503021503 | 50 | 197 | 0.0 | 1.7 | 0.00 | 0.00 | 0.00 | 51 | 1013.6 |
| 20260503021024 | 50 | 197 | 0.0 | 1.7 | 0.00 | 0.00 | 0.00 | 51 | 1013.6 |
| 20260503020503 | 50 | 0 | 0.0 | 0.0 | 0.00 | 0.00 | 0.00 | 51 | 1013.6 |
| 20260503020003 | 51 | 0 | 0.0 | 0.0 | 0.00 | 0.00 | 0.00 | 50 | 1013.6 |
| 20260503015524 | 51 | 0 | 0.0 | 0.0 | 0.00 | 0.00 | 0.00 | 49 | 1013.5 |
| 20260503015003 | 51 | 0 | 0.0 | 0.0 | 0.00 | 0.00 | 0.00 | 49 | 1013.5 |
| 20260503014524 | 51 | 0 | 0.0 | 0.0 | 0.00 | 0.00 | 0.00 | 49 | 1013.5 |
| 20260503014003 | 52 | 0 | 0.0 | 0.0 | 0.00 | 0.00 | 0.00 | 48 | 1013.4 |
| 20260503013503 | 52 | 0 | 0.0 | 0.0 | 0.00 | 0.00 | 0.00 | 48 | 1013.4 |
| 20260503013003 | 52 | 0 | 0.0 | 0.0 | 0.00 | 0.00 | 0.00 | 47 | 1013.4 |
| 20260503012503 | 52 | 197 | 0.0 | 0.9 | 0.00 | 0.00 | 0.00 | 46 | 1013.4 |
| 20260503012003 | 53 | 197 | 0.0 | 1.7 | 0.00 | 0.00 | 0.00 | 46 | 1013.4 |
| 20260503011503 | 53 | 197 | 0.0 | 1.7 | 0.00 | 0.00 | 0.00 | 45 | 1013.4 |
| 20260503011024 | 53 | 0 | 0.0 | 0.0 | 0.00 | 0.00 | 0.00 | 45 | 1013.4 |
| 20260503010503 | 54 | 197 | 0.0 | 0.9 | 0.00 | 0.00 | 0.00 | 44 | 1013.3 |
| 20260503010003 | 54 | 197 | 0.0 | 0.9 | 0.00 | 0.00 | 0.00 | 43 | 1013.4 |
| 20260503005503 | 55 | 197 | 0.0 | 1.7 | 0.00 | 0.00 | 0.00 | 42 | 1013.4 |
| 20260503005024 | 55 | 197 | 0.9 | 3.5 | 0.00 | 0.00 | 0.00 | 41 | 1013.4 |
| 20260503004504 | 55 | 204 | 0.9 | 3.5 | 0.00 | 0.00 | 0.00 | 40 | 1013.4 |
| 20260503004003 | 56 | 217 | 0.9 | 3.5 | 0.00 | 0.00 | 0.00 | 39 | 1013.4 |
| 20260503003503 | 56 | 225 | 0.9 | 3.5 | 0.00 | 0.00 | 0.00 | 38 | 1013.4 |
| 20260503003003 | 56 | 217 | 0.9 | 4.3 | 0.00 | 0.00 | 0.00 | 38 | 1013.4 |
| 20260503002504 | 57 | 223 | 1.7 | 6.1 | 0.00 | 0.00 | 0.00 | 37 | 1013.4 |
| 20260503002003 | 57 | 233 | 1.7 | 6.1 | 0.00 | 0.00 | 0.00 | 36 | 1013.4 |
| 20260503001504 | 57 | 223 | 1.7 | 5.2 | 0.00 | 0.00 | 0.00 | 36 | 1013.4 |
| 20260503001003 | 58 | 218 | 1.7 | 5.2 | 0.00 | 0.00 | 0.00 | 36 | 1013.4 |
| 20260503000503 | 58 | 237 | 1.7 | 5.2 | 0.00 | 0.00 | 0.00 | 36 | 1013.4 |
| 20260503000003 | 58 | 236 | 1.7 | 5.2 | 0.00 | 0.00 | 0.00 | 37 | 1013.5 |
| 20260502235524 | 58 | 237 | 1.7 | 7.0 | 0.00 | 0.00 | 0.00 | 36 | 1013.5 |
| 20260502235003 | 58 | 251 | 1.7 | 7.0 | 0.00 | 0.00 | 0.00 | 36 | 1013.5 |
| 20260502234503 | 57 | 245 | 1.7 | 7.0 | 0.00 | 0.00 | 0.00 | 36 | 1013.6 |
| 20260502234003 | 57 | 235 | 1.7 | 7.0 | 0.00 | 0.00 | 0.00 | 36 | 1013.7 |
| 20260502233503 | 57 | 257 | 2.6 | 7.0 | 0.00 | 0.00 | 0.00 | 36 | 1013.7 |
| 20260502233003 | 57 | 264 | 3.5 | 7.8 | 0.00 | 0.00 | 0.00 | 36 | 1013.7 |
| 20260502232525 | 58 | 252 | 3.5 | 7.8 | 0.00 | 0.00 | 0.00 | 35 | 1013.8 |
| 20260502232003 | 58 | 234 | 1.7 | 7.0 | 0.00 | 0.00 | 0.00 | 35 | 1013.8 |
| 20260502231503 | 58 | 247 | 2.6 | 9.6 | 0.00 | 0.00 | 0.00 | 35 | 1013.8 |
| 20260502231003 | 59 | 246 | 3.5 | 9.6 | 0.00 | 0.00 | 0.00 | 34 | 1014.0 |
| 20260502230524 | 59 | 245 | 2.6 | 9.6 | 0.00 | 0.00 | 0.00 | 33 | 1013.9 |
| 20260502230003 | 59 | 240 | 2.6 | 9.6 | 0.00 | 0.00 | 0.00 | 35 | 1013.9 |